When you browse on this site, cookies collect data to enhance your experience and personalize the content and advertising you see.
Visit our Privacy Policy to learn more. By continuing to use the site, you agree to this use of cookies and data.
  • In Österreich
  • Länderverzeichnis
  • Für 7 Tage
  • Wassertemperatur
  • Satellitenkarten
  • Wetterkarte
  • News
  • Widgets
  • user-avatar
    Anmelden

    Stündliche Wetter Penonomé

    Heute, 14 Dezember, Freitag

    Zeit Temperatur Niederschläge Wind Luftdruck Luftfeuchtigkeit
    00:00 +26°C° 0 mm 4 m/S 750 mmHg 84%
    01:00 +26°C° 0 mm 3 m/S 750 mmHg 85%
    02:00 +26°C° 0 mm 3 m/S 750 mmHg 86%
    03:00 +26°C° 0 mm 3 m/S 750 mmHg 86%
    04:00 +25°C° 0 mm 3 m/S 750 mmHg 87%
    05:00 +25°C° 0 mm 3 m/S 750 mmHg 88%
    06:00 +26°C° 0 mm 2 m/S 750 mmHg 89%
    07:00 +26°C° 0 mm 2 m/S 750 mmHg 89%
    08:00 +27°C° 0 mm 3 m/S 751 mmHg 83%
    09:00 +29°C° 0 mm 3 m/S 751 mmHg 78%
    10:00 +30°C° 0 mm 3 m/S 751 mmHg 72%
    11:00 +31°C° 0 mm 3 m/S 751 mmHg 68%
    12:00 +33°C° 0 mm 3 m/S 750 mmHg 64%
    13:00 +34°C° 0 mm 3 m/S 750 mmHg 61%
    14:00 +34°C° 0.1 mm 3 m/S 749 mmHg 62%
    15:00 +33°C° 0.1 mm 3 m/S 749 mmHg 63%
    16:00 +33°C° 0.1 mm 3 m/S 748 mmHg 65%
    17:00 +30°C° 0.1 mm 3 m/S 749 mmHg 71%
    18:00 +29°C° 0.1 mm 2 m/S 749 mmHg 78%
    19:00 +27°C° 0.1 mm 2 m/S 749 mmHg 84%
    20:00 +27°C° 0 mm 2 m/S 750 mmHg 85%
    21:00 +26°C° 0 mm 2 m/S 750 mmHg 85%
    22:00 +26°C° 0 mm 2 m/S 750 mmHg 86%
    23:00 +26°C° 0 mm 2 m/S 750 mmHg 86%

    Morgen, 15 Dezember, Samstag

    Zeit Temperatur Niederschläge Wind Luftdruck Luftfeuchtigkeit
    00:00 +26°C° 0 mm 2 m/S 750 mmHg 87%
    01:00 +26°C° 0 mm 2 m/S 750 mmHg 87%
    02:00 +26°C° 0 mm 2 m/S 750 mmHg 87%
    03:00 +26°C° 0 mm 2 m/S 750 mmHg 87%
    04:00 +26°C° 0 mm 2 m/S 749 mmHg 87%
    05:00 +26°C° 0 mm 2 m/S 750 mmHg 88%
    06:00 +25°C° 0 mm 2 m/S 750 mmHg 88%
    07:00 +25°C° 0 mm 2 m/S 750 mmHg 89%
    08:00 +27°C° 0 mm 3 m/S 751 mmHg 82%
    09:00 +29°C° 0 mm 3 m/S 751 mmHg 76%
    10:00 +31°C° 0 mm 3 m/S 752 mmHg 69%
    11:00 +33°C° 0 mm 3 m/S 751 mmHg 66%
    12:00 +33°C° 0 mm 3 m/S 751 mmHg 63%
    13:00 +34°C° 0 mm 3 m/S 750 mmHg 60%
    14:00 +34°C° 0.1 mm 4 m/S 749 mmHg 62%
    15:00 +33°C° 0.1 mm 4 m/S 749 mmHg 64%
    16:00 +33°C° 0.1 mm 4 m/S 748 mmHg 66%
    17:00 +30°C° 0 mm 4 m/S 749 mmHg 71%
    18:00 +29°C° 0 mm 4 m/S 749 mmHg 77%
    19:00 +27°C° 0 mm 4 m/S 749 mmHg 82%
    20:00 +27°C° 0 mm 4 m/S 750 mmHg 83%
    21:00 +27°C° 0 mm 4 m/S 750 mmHg 83%
    22:00 +26°C° 0 mm 4 m/S 751 mmHg 83%
    23:00 +26°C° 0 mm 4 m/S 751 mmHg 84%

    übermorgen, 16 Dezember, Sonntag

    Zeit Temperatur Niederschläge Wind Luftdruck Luftfeuchtigkeit
    00:00 +26°C° 0 mm 4 m/S 751 mmHg 85%
    01:00 +26°C° 0 mm 4 m/S 751 mmHg 86%
    02:00 +26°C° 0 mm 4 m/S 750 mmHg 86%
    03:00 +26°C° 0 mm 4 m/S 750 mmHg 86%
    04:00 +26°C° 0 mm 4 m/S 750 mmHg 86%
    05:00 +25°C° 0 mm 4 m/S 750 mmHg 87%
    06:00 +25°C° 0 mm 4 m/S 750 mmHg 87%
    07:00 +25°C° 0 mm 4 m/S 751 mmHg 87%
    08:00 +27°C° 0 mm 5 m/S 751 mmHg 82%
    09:00 +28°C° 0 mm 5 m/S 752 mmHg 78%
    10:00 +30°C° 0 mm 5 m/S 752 mmHg 73%
    11:00 +30°C° 0 mm 5 m/S 751 mmHg 71%
    12:00 +32°C° 0 mm 5 m/S 751 mmHg 69%
    13:00 +32°C° 0 mm 5 m/S 750 mmHg 67%
    14:00 +32°C° 0 mm 6 m/S 749 mmHg 68%
    15:00 +30°C° 0 mm 6 m/S 749 mmHg 69%
    16:00 +30°C° 0 mm 6 m/S 748 mmHg 70%
    17:00 +29°C° 0.1 mm 5 m/S 748 mmHg 75%
    18:00 +28°C° 0.1 mm 5 m/S 749 mmHg 79%
    19:00 +27°C° 0.1 mm 5 m/S 749 mmHg 83%
    20:00 +26°C° 0.1 mm 5 m/S 750 mmHg 84%
    21:00 +26°C° 0.1 mm 5 m/S 750 mmHg 85%
    22:00 +26°C° 0.1 mm 4 m/S 751 mmHg 86%
    23:00 +26°C° 0.1 mm 4 m/S 751 mmHg 86%

    17 Dezember, Montag

    Zeit Temperatur Niederschläge Wind Luftdruck Luftfeuchtigkeit
    00:00 +26°C° 0.1 mm 4 m/S 750 mmHg 87%
    01:00 +26°C° 0.1 mm 4 m/S 750 mmHg 87%
    02:00 +26°C° 0.1 mm 4 m/S 750 mmHg 87%
    03:00 +26°C° 0.1 mm 4 m/S 749 mmHg 87%
    04:00 +25°C° 0.1 mm 4 m/S 749 mmHg 87%
    05:00 +25°C° 0.1 mm 4 m/S 750 mmHg 87%
    06:00 +25°C° 0.1 mm 4 m/S 750 mmHg 87%
    07:00 +25°C° 0.1 mm 4 m/S 750 mmHg 88%
    08:00 +26°C° 0.1 mm 4 m/S 751 mmHg 83%
    09:00 +28°C° 0.1 mm 5 m/S 751 mmHg 78%
    10:00 +29°C° 0.1 mm 5 m/S 752 mmHg 73%
    11:00 +30°C° 0.1 mm 5 m/S 751 mmHg 71%
    12:00 +30°C° 0.1 mm 5 m/S 751 mmHg 68%
    13:00 +32°C° 0.1 mm 5 m/S 750 mmHg 66%
    14:00 +30°C° 0 mm 5 m/S 749 mmHg 67%
    15:00 +30°C° 0 mm 5 m/S 749 mmHg 68%
    16:00 +30°C° 0 mm 6 m/S 748 mmHg 69%
    17:00 +29°C° 0 mm 5 m/S 748 mmHg 73%
    18:00 +27°C° 0 mm 5 m/S 749 mmHg 77%
    19:00 +26°C° 0 mm 5 m/S 749 mmHg 81%
    20:00 +26°C° 0 mm 4 m/S 750 mmHg 81%
    21:00 +26°C° 0 mm 4 m/S 750 mmHg 82%
    22:00 +26°C° 0 mm 4 m/S 751 mmHg 83%
    23:00 +26°C° 0 mm 4 m/S 750 mmHg 83%

    18 Dezember, Dienstag

    Zeit Temperatur Niederschläge Wind Luftdruck Luftfeuchtigkeit
    00:00 +25°C° 0 mm 4 m/S 750 mmHg 84%
    01:00 +25°C° 0 mm 4 m/S 750 mmHg 85%
    02:00 +25°C° 0 mm 4 m/S 749 mmHg 85%
    03:00 +25°C° 0 mm 3 m/S 749 mmHg 86%
    04:00 +25°C° 0 mm 3 m/S 749 mmHg 86%
    05:00 +25°C° 0 mm 3 m/S 749 mmHg 87%
    06:00 +25°C° 0 mm 3 m/S 750 mmHg 87%
    07:00 +25°C° 0 mm 3 m/S 750 mmHg 87%
    08:00 +27°C° 0 mm 4 m/S 750 mmHg 82%
    09:00 +28°C° 0 mm 4 m/S 751 mmHg 76%
    10:00 +30°C° 0 mm 4 m/S 751 mmHg 71%
    11:00 +30°C° 0 mm 4 m/S 751 mmHg 68%
    12:00 +32°C° 0 mm 4 m/S 750 mmHg 65%
    13:00 +33°C° 0 mm 4 m/S 749 mmHg 62%
    14:00 +32°C° 0.1 mm 4 m/S 749 mmHg 64%
    15:00 +32°C° 0.1 mm 5 m/S 748 mmHg 65%
    16:00 +32°C° 0.1 mm 5 m/S 748 mmHg 66%
    17:00 +29°C° 0 mm 4 m/S 748 mmHg 70%
    18:00 +28°C° 0 mm 4 m/S 748 mmHg 75%
    19:00 +27°C° 0 mm 4 m/S 749 mmHg 79%
    20:00 +26°C° 0 mm 4 m/S 749 mmHg 80%
    21:00 +26°C° 0 mm 3 m/S 750 mmHg 81%
    22:00 +26°C° 0 mm 3 m/S 750 mmHg 81%
    23:00 +26°C° 0 mm 3 m/S 750 mmHg 82%

    19 Dezember, Mittwoch

    Zeit Temperatur Niederschläge Wind Luftdruck Luftfeuchtigkeit
    00:00 +25°C° 0 mm 3 m/S 750 mmHg 83%
    01:00 +25°C° 0 mm 3 m/S 749 mmHg 84%
    02:00 +25°C° 0 mm 3 m/S 749 mmHg 85%
    03:00 +25°C° 0 mm 3 m/S 749 mmHg 86%
    04:00 +25°C° 0 mm 3 m/S 749 mmHg 87%
    05:00 +25°C° 0 mm 3 m/S 749 mmHg 87%
    06:00 +25°C° 0 mm 3 m/S 750 mmHg 87%
    07:00 +25°C° 0 mm 3 m/S 750 mmHg 87%
    08:00 +27°C° 0 mm 3 m/S 750 mmHg 81%
    09:00 +29°C° 0 mm 3 m/S 751 mmHg 75%
    10:00 +30°C° 0 mm 3 m/S 751 mmHg 69%
    11:00 +31°C° 0.2 mm 3 m/S 750 mmHg 67%
    12:00 +31°C° 0.2 mm 3 m/S 750 mmHg 65%
    13:00 +33°C° 0.2 mm 3 m/S 749 mmHg 63%
    14:00 +32°C° 0.2 mm 4 m/S 749 mmHg 65%
    15:00 +32°C° 0.2 mm 4 m/S 748 mmHg 68%
    16:00 +30°C° 0.2 mm 4 m/S 747 mmHg 70%
    17:00 +29°C° 0 mm 4 m/S 748 mmHg 74%
    18:00 +28°C° 0 mm 3 m/S 748 mmHg 78%
    19:00 +27°C° 0 mm 3 m/S 749 mmHg 83%
    20:00 +26°C° 0 mm 3 m/S 749 mmHg 83%
    21:00 +26°C° 0 mm 3 m/S 749 mmHg 84%
    22:00 +26°C° 0 mm 3 m/S 750 mmHg 85%
    23:00 +25°C° 0 mm 3 m/S 750 mmHg 85%
    Mehr zeigen